Flag for USA

Past Weather in 42°59'51"N, 96°02'05"W, USA — Yesterday and Last 2 Weeks

Now
72 °F

Clear.


Feels Like: 72 °F
Forecast: 87 / 61 °F
Wind: No wind

Location: Foss Field

Current Time: Jul 10, 2020 at 2:27:13 am

Latest Report: Jul 10, 2020 at 12:56 am


Visibility: 10 mi

Pressure: 29.97 "Hg

Humidity: 81%

Dew Point: 66 °F

Location of 42°59'51"N, 96°02'05"WLocation

Past Weather in 42°59'51"N, 96°02'05"W — Graph

°F

42°59'51"N, 96°02'05"W Temperature Yesterday

Maximum temperature yesterday: 87 °F (at 3:56 pm)
Minimum temperature yesterday: 71 °F (at 11:56 pm)
Average temperature yesterday: 78 °F

High & Low Weather Summary for the Past Weeks

 TemperatureHumidityPressure
High90 °F (Jun 30, 2:26 pm)100% (Jun 27, 4:26 am)30.09 "Hg (Jun 27, 4:26 am)
Low63 °F (Jun 27, 5:56 am)43% (Jun 25, 12:56 pm)29.53 "Hg (Jun 28, 7:56 pm)
Average79 °F72%29.84 "Hg
* Reported Jun 25 12:56 am — Jul 10 12:56 am, 42°59'51"N, 96°02'05"W. Weather by CustomWeather, © 2020

Note: Actual official high and low records may vary slightly from our data, if they occured in-between our weather recording intervals... More about our weather records

42°59'51"N, 96°02'05"W Weather History for the Previous 24 Hours

Scroll right to see more
 ConditionsComfort  
Time TempWeatherWind HumidityBarometerVisibility
12:56 am
Fri, Jul 10
72 °FClear.No wind81%29.97 "Hg10 mi
11:56 pm
Thu, Jul 9
71 °FClear.No wind84%29.94 "Hg10 mi
10:56 pm73 °FPassing clouds.No wind79%29.93 "Hg10 mi
9:56 pm76 °FPassing clouds.6 mph74%29.92 "Hg10 mi
8:56 pm79 °FScattered clouds.6 mph69%29.91 "Hg10 mi
7:56 pm83 °FScattered clouds.6 mph61%29.89 "Hg10 mi
6:56 pm84 °FScattered clouds.6 mph53%29.89 "Hg10 mi
5:56 pm87 °FScattered clouds.3 mph48%29.88 "Hg10 mi
4:56 pm87 °FScattered clouds.6 mph50%29.86 "Hg10 mi
3:56 pm87 °FScattered clouds.6 mph50%29.86 "Hg10 mi
2:56 pm85 °FScattered clouds.7 mph59%29.86 "Hg10 mi
1:56 pm84 °FScattered clouds.8 mph57%29.86 "Hg10 mi
12:56 pm82 °FPartly sunny.9 mph63%29.86 "Hg10 mi
11:56 am78 °FPartly sunny.9 mph69%29.84 "Hg10 mi
10:56 am76 °FPartly sunny.10 mph69%29.82 "Hg10 mi
9:56 am74 °FPartly sunny.8 mph74%29.84 "Hg10 mi
8:56 am73 °FLight rain. Mostly cloudy.5 mph74%29.85 "Hg10 mi
7:56 am74 °FLight rain. Overcast.5 mph69%29.86 "Hg10 mi
6:56 am73 °FOvercast.6 mph69%29.78 "Hg10 mi
5:56 am72 °FOvercast.3 mph71%29.75 "Hg10 mi
4:56 am72 °FLight rain. Mostly cloudy.5 mph68%29.75 "Hg10 mi
3:56 am78 °FPassing clouds.5 mph48%29.79 "Hg10 mi
2:56 am76 °FClear.8 mph54%29.78 "Hg10 mi
Weather by CustomWeather, © 2020

See weather overview